Location: Austin, TX
(30.3000°N, 97.7500°W)
Time: 17:03:34
(UTC-05:00)

Daily predictions for brighter satellites

Satellite Brightness Start Highest point End
(mag) Time Altitude Azimuth Time Altitude Azimuth Time Altitude Azimuth
CENTAUR R/B 4.0 20:42:52 10° N 20:49:55 33° NE 20:57:14 10° ESE
NOSS 2-2 (D) 3.4 20:55:43 10° SSW 20:59:43 68° ESE 21:04:01 10° NE
Cosmos 1703 Rocket 3.9 20:59:49 10° N 21:04:17 74° W 21:08:44 10° S
ATLAS 5 CENTAUR R/B 3.7 21:00:37 10° N 21:05:39 26° NE 21:10:53 10° ESE
ALOS 2.2 21:05:24 10° SSE 21:10:03 77° ENE 21:14:44 10° N
NOSS 2-2 (C) 3.6 21:10:24 10° SSW 21:14:25 78° WNW 21:18:46 10° NNE
Cosmos 2278 Rocket 3.5 21:11:14 10° SE 21:15:01 19° E 21:18:49 10° ENE
Coronas F rocket 1.5 21:12:50 10° SSE 21:15:22 43° E 21:17:54 10° NNE
Cosmos 1844 4.4 21:13:23 10° SSE 21:18:27 33° ESE 21:23:34 10° NE
ISS -2.4 21:18:00 10° S 21:20:48 27° SE 21:23:37 10° ENE
Cosmos 1825 4.3 21:21:19 11° E 21:21:19 11° E 21:22:26 10° ENE
Cosmos 1943 4.1 21:16:52 10° NNW 21:22:16 48° WSW 21:27:37 10° S
Cosmos 1844 Rocket 2.8 21:17:37 10° S 21:23:05 52° ESE 21:28:34 10° NNE
Envisat 4.2 21:20:01 14° ESE 21:23:14 25° ENE 21:27:20 10° NNE
Cosmos 1624 Rocket 4.0 21:18:27 10° SSW 21:23:41 84° ESE 21:28:59 10° NNE
SEDSat Delta rocket 4.2 21:24:31 10° SSW 21:27:36 19° SSE 21:28:32 18° SE
CZ-2D R/B 3.9 21:25:26 10° S 21:29:09 55° W 21:32:54 10° NNW
ERBS 4.1 21:29:33 10° N 21:32:13 20° NE 21:33:42 16° E
Cosmos 1356 Rocket 3.5 21:28:08 10° S 21:32:18 82° W 21:36:35 10° N
Cosmos 1733 Rocket 3.0 21:28:53 10° S 21:33:17 72° E 21:37:40 10° N
deb Chang Zheng 4 3.9 21:30:11 10° NNE 21:34:27 46° E 21:38:42 10° S
FENGYUN 3A 4.1 21:30:52 10° S 21:36:12 62° W 21:41:32 10° NNW
YAOGAN 11 4.1 21:33:21 14° SSE 21:37:12 69° ENE 21:41:43 10° N
Cosmos 2184 Rocket 3.9 21:31:07 10° S 21:37:16 84° E 21:43:27 10° N
GPS 2-05 Rocket1 2.9 21:36:51 10° WSW 21:40:34 88° NNW 21:43:27 15° ENE
Cosmos 2084 3.4 21:41:56 10° S 21:45:40 44° ESE 21:49:21 10° NE
BREEZE-M DEB (TANK) 3.5 21:43:58 10° NNW 21:46:00 29° NE 21:47:10 23° E
CZ-4 DEB 2.9 21:43:54 19° S 21:46:03 70° W 21:49:12 10° NNW
ERS-1 Rocket 2.9 21:42:22 17° SSE 21:46:12 69° ENE 21:51:13 10° N
Cosmos 407 Rocket 4.5 21:41:48 10° N 21:46:28 31° ENE 21:48:30 24° ESE
MINOTAUR IV R/B 4.4 21:42:29 10° SSW 21:46:56 74° ESE 21:51:24 10° NNE
Cosmos 1452 Rocket 3.7 21:42:39 10° S 21:47:41 49° ESE 21:52:44 10° NNE
deb Centaur AC-2 4.5 21:42:21 10° W 21:48:33 88° S 21:51:55 22° E
Abrixas rocket 2.2 21:46:44 10° NW 21:50:08 87° SW 21:51:11 42° SE
USA 186 3.8 21:49:12 10° SSW 21:51:41 24° W 21:54:18 10° NW
Meteor 1-27 Rocket 4.3 21:48:05 10° NNE 21:53:09 36° ENE 21:55:05 28° ESE
Meteor 2-10 Rocket 3.8 21:48:13 10° N 21:54:01 84° W 21:58:55 14° S
Intelsat 3F5 C 3.8 21:51:28 10° WSW 21:54:34 59° S 21:54:39 59° SSE
H-2A R/B 3.4 21:51:22 10° W 21:55:17 76° S 22:19:21 10° E
Cosmos 1939 Rocket 2.7 21:55:37 35° SSE 21:57:04 66° ENE 22:00:56 10° N
Nimbus 7 Rocket 4.3 21:52:10 10° NNE 21:58:07 75° ESE 22:04:05 10° S
Cosmos 1782 2.8 21:54:11 10° N 21:58:11 61° E 21:59:29 38° SSE
Cosmos 1190 Rocket 4.2 21:54:08 10° N 21:59:12 52° ENE 22:01:14 33° SE
H-2A R/B 2.1 21:58:20 35° SE 21:59:56 58° ENE 22:04:09 10° N
Cosmos 1606 3.3 21:59:48 10° NNE 22:03:28 37° E 22:03:33 37° E
Atlas Centaur 2 0.8 22:02:12 10° W 22:05:45 88° N 22:06:28 55° E
UNK 4.5 22:04:31 10° NNE 22:10:34 57° E 22:13:46 27° S
OAO 3 Rocket 3.5 22:06:28 10° SW 22:11:11 44° SSE 22:11:28 44° SE
USA 234 3.4 22:05:48 10° NE 22:12:00 46° SE 22:18:10 10° SSW
CZ-4B R/B 3.8 22:08:24 10° NNE 22:13:00 39° E 22:13:01 39° E
Cosmos 1184 Rocket 4.2 22:18:32 28° NNE 22:18:32 28° NNE 22:20:21 10° NNE
Meteosat 1 Rocket2 4.3 22:15:17 10° W 22:21:34 78° S 22:27:00 28° E
Okean 2 Rocket 3.4 22:22:51 48° ENE 22:22:51 48° ENE 22:26:45 10° NNE
MetOp-B 4.1 22:28:08 52° SE 22:29:17 69° ENE 22:34:37 10° N
Cosmos 676 Rocket 4.0 22:24:16 10° N 22:29:24 60° ENE 22:30:01 55° ESE
Nadezhda 3 Rocket 3.9 22:26:04 10° N 22:32:27 84° E 22:34:48 42° S
Cosmos 1954 Rocket 4.2 22:30:31 10° N 22:35:36 51° ENE 22:35:45 51° ENE
CENTAUR R/B 3.7 22:33:07 10° NW 22:40:55 52° WSW 22:45:16 28° S
Cosmos 1782 Rocket 3.7 22:41:24 67° SW 22:41:48 73° W 22:46:16 10° N
ARGOS 3.3 22:42:39 53° ENE 22:42:44 53° ENE 22:47:56 10° N
SL-27 R/B 3.9 22:39:47 10° NW 22:42:55 34° W 22:42:55 34° W
COS B Rocket 4.1 22:39:38 10° NNW 22:43:27 43° W 22:43:40 43° W
Cosmos 2341 Rocket 4.2 22:42:11 24° SSW 22:46:08 68° W 22:52:24 10° N
COSMOS 2406 4.3 22:44:31 10° NW 22:49:44 37° WSW 22:51:52 27° SW
ATLAS 5 CENTAUR R/B 3.1 22:44:36 10° NW 22:50:34 48° WSW 22:52:28 38° SSW
Meteor 1-14 Rocket 4.2 22:50:48 64° E 22:50:48 64° E 22:56:11 10° NNE
COSMOS 2487 4.4 22:48:12 10° N 22:49:57 26° N 22:49:57 26° N
Okean 3 3.9 22:48:01 10° N 22:51:34 59° NNW 22:51:34 59° NNW
Meteor 2-13 Rocket 4.4 22:51:54 47° SSW 22:53:49 81° W 23:00:00 10° N
Cosmos 1825 3.9 22:56:12 29° W 22:56:31 30° W 22:59:54 10° NNW
ISS -0.5 22:54:49 10° W 22:57:13 19° NW 22:59:03 13° N
SPOT 5 3.8 22:56:49 40° SW 22:57:56 47° W 23:03:04 10° NNW
Cosmos 2278 Rocket 3.2 22:53:17 10° SW 22:58:39 44° WNW 23:04:04 10° N
Cosmos 1238 Rocket 4.4 22:57:29 10° NNW 22:59:26 30° NW 22:59:26 30° NW
Terra 3.4 23:04:36 25° NE 23:04:36 25° NE 23:07:10 10° N
Cosmos 1975 Rocket 3.8 22:59:09 10° N 23:02:26 50° NNW 23:02:26 50° NNW
Timation 2 Rocket 4.3 22:59:18 10° N 23:04:45 49° NE 23:04:45 49° NE
Cosmos 1833 Rocket 4.3 23:02:48 10° N 23:06:17 22° NE 23:06:17 22° NE
SL-8 Rocket 4.0 23:06:03 63° SSW 23:07:07 80° W 23:13:23 10° N
H-2A R/B 2.8 23:15:18 45° NNE 23:15:18 45° NNE 23:19:22 10° N
Cosmos 2082 Rocket 3.2 23:19:01 10° N 23:23:06 36° NE 23:23:06 36° NE
FALCON 9 R/B 4.3 23:00:24 10° WNW 23:28:05 45° SW 23:30:45 40° SSW
Cosmos 2297 4.5 23:30:37 45° W 23:31:23 48° WNW 23:36:55 10° N
CZ-3 Stage 3 4.0 22:34:34 10° W 23:43:46 88° S 23:45:24 65° E
